User: anonymous   Login
Location: Caltech
(34.1382°N, 118.1253°W)
Time: 22:03:39
(UTC-07:00)
Language:

CZ-4B DEB - Orbit

View from above orbital plane
View from above orbital plane
View from above satellite
View from above satellite

Ground track
Ground track

The orbit data is extracted from the following two-line orbital elements,

1 27433U 02024D   15210.81859981  .00000129  00000-0  94789-4 0  9998
2 27433 098.8768 176.2015 0014033 191.0757 169.0108 14.11929474680023
Epoch (UTC): 29 July 2015 19:38:47
Eccentricity: 0.0014033
inclination: 98.8768°
perigee height: 842 km
apogee height: 863 km
right ascension of ascending node: 176.2015°
argument of perigee: 191.0757°
revolutions per day: 14.11929474
mean anomaly at epoch: 169.0108°
orbit number at epoch: 68002

The dashed part of the orbit path shows where the satellite is in the earth's shadow,  

DLR